Home   Weather   Bakersfield   Past weeks

Flag for USA Past Weather in Bakersfield, California, USA — Yesterday and Last 2 Weeks

Now
100 °F

Sunny.


Feels Like: 94 °F
Forecast: 72 / 97 °F
Wind: 16 mph from North

Location: Meadows Field

Current Time: Sep 26, 2016 at 5:17:22 PM

Latest Report: Sep 26, 2016 at 3:54 PM


Visibility: 10 mi

Pressure: 29.88 "Hg

Humidity: 8%

Dew Point: 29 °F

Location of BakersfieldLocation

Past Weather in Bakersfield — Graph

°F

Bakersfield Temperature Yesterday

Maximum temperature yesterday: 97 °F (at 3:54 PM)
Minimum temperature yesterday: 60 °F (at 5:54 AM)
Average temperature yesterday: 79 °F

High & Low Weather Summary for the Past Weeks

 TemperatureHumidityPressure
High104 °F (Sep 19, 4:54 PM)62% (Sep 13, 5:54 AM)30.11 "Hg (Sep 13, 5:54 AM)
Low56 °F (Sep 13, 5:54 AM)8% (Sep 26, 3:54 PM)29.70 "Hg (Sep 12, 4:54 PM)
Average77 °F29%29.94 "Hg
* Reported Sep 11 3:54 PM — Sep 26 3:54 PM, Bakersfield, Weather by CustomWeather, © 2016

Note: Actual official high and low records may vary slightly from our data, if they occured in-between our weather recording intervals... More about our weather records

Advertising

Bakersfield Weather History for the Previous 24 Hours

Scroll right to see more
 ConditionsComfort  
Time TempWeatherWind HumidityBarometerVisibility
3:54 PM
Mon, Sep 26
100 °FSunny.16 mph8%29.88 "Hg10 mi
2:54 PM99 °FPassing clouds.15 mph10%29.90 "Hg10 mi
1:54 PM97 °FSunny.13 mph12%29.92 "Hg10 mi
12:54 PM95 °FSunny.12 mph14%29.95 "Hg10 mi
11:54 AM93 °FSunny.9 mph12%29.98 "Hg10 mi
10:54 AM89 °FSunny.7 mph15%30.00 "Hg10 mi
9:54 AM84 °FSunny.No wind12%30.02 "Hg10 mi
8:54 AM75 °FSunny.6 mph24%30.02 "Hg10 mi
7:54 AM70 °FSunny.No wind34%30.01 "Hg10 mi
6:54 AM65 °FSunny.No wind31%30.00 "Hg10 mi
5:54 AM67 °FClear.No wind33%29.98 "Hg10 mi
4:54 AM70 °FClear.3 mph29%29.96 "Hg10 mi
3:54 AM66 °FClear.5 mph34%29.96 "Hg10 mi
2:54 AM69 °FClear.No wind31%29.95 "Hg10 mi
1:54 AM71 °FClear.No wind34%29.96 "Hg10 mi
12:54 AM72 °FClear.No wind34%29.96 "Hg8 mi
11:54 PM
Sun, Sep 25
75 °FClear.No wind27%29.97 "Hg10 mi
10:54 PM80 °FClear.8 mph25%29.97 "Hg10 mi
9:54 PM81 °FClear.3 mph24%29.96 "Hg10 mi
8:54 PM85 °FClear.5 mph16%29.96 "Hg10 mi
7:54 PM87 °FClear.5 mph15%29.95 "Hg10 mi
6:54 PM87 °FClear.3 mph17%29.94 "Hg10 mi
5:54 PM95 °FSunny.10 mph12%29.94 "Hg10 mi
Weather by CustomWeather, © 2016

See weather overviewHow to use our weather pages